[[{"header":{"parameterUnit":"m.s-1","parameterCategory":2,"la1":30.2991,"la2":30.254,"lo1":-89.0895,"lo2":-89.0444,"dx":0.0017,"dy":0.0017,"nx":28,"ny":28,"refTime":"2023-01-27T15:00:00:Z","depth":"0","parameterNumber":2,"parameterNumberName":"U-component_of_CURRENTS"},"data":[0,0,0,0,0,0,0,0,0,0,0,0,0,0,0,0,0,0,0,0,0,0,0,0,0,0,0,0,0,0,0,0,0,0,0,0,0,0,0,0,0,0,0,0,0,0,0,0,0,0,0,0,0,0,0,0,0,0,0.1935,0.1935,0,0.1918,0.1917,0.1917,0.1891,0.1891,0.1891,0.1891,0.1857,0.1856,0.1856,0,0,0,0,0,0,0,0,0,0,0,0,0,0.1934,0.1934,0.1935,0.1935,0.1935,0.1918,0.1917,0.1917,0.1891,0.1891,0.1891,0.189,0.1857,0.1856,0.1856,0,0,0,0,0,0,0,0,0,0,0,0,0,0.1926,0.1934,0.1935,0.1921,0.192,0.1918,0.1917,0.1917,0.1892,0.1891,0.1891,0.189,0.1857,0.1856,0.1856,0.1858,0,0,0.1853,0.1852,0,0,0,0,0,0,0,0,0.1926,0.1926,0.1923,0.1922,0.1921,0.1908,0.1905,0.1897,0.1892,0.19,0.1891,0.189,0.1874,0.1872,0.1867,0.1856,0.1855,0.1853,0.1852,0.1852,0.1851,0,0,0,0,0,0,0,0.1927,0.1926,0.1926,0.1923,0.1922,0.1912,0.1911,0.1903,0.1888,0.19,0.1898,0.1899,0.1873,0.1868,0.1866,0.1855,0.1853,0.1852,0.1851,0.1851,0.1846,0.1846,0,0,0,0,0,0,0.1934,0.1927,0.1927,0.1926,0.1925,0.1913,0.1911,0.1911,0.1888,0.1885,0.19,0.1898,0.187,0.1867,0.1865,0.1888,0.1852,0.1851,0.185,0.1846,0.1846,0.1847,0,0,0,0,0,0,0.1934,0.1934,0.1927,0.1927,0.1926,0.1914,0.1914,0.1911,0.1911,0.1889,0.1885,0.1904,0.1869,0.1866,0.1862,0.1885,0.185,0.1849,0.1845,0.1846,0.1846,0.192,0,0,0,0,0,0,0.1934,0.1934,0.1937,0.1928,0.1926,0.1936,0.1914,0.1911,0.1913,0.1911,0.1891,0.1887,0.1869,0.1864,0.1861,0.1883,0.1849,0.1844,0.1845,0.1846,0.1917,0.1923,0.1928,0,0,0,0,0,0.1934,0.1938,0.1937,0.1937,0.193,0.1937,0.1936,0.1924,0.1914,0.1921,0.1903,0.1888,0.1867,0.1864,0.186,0.1883,0.1844,0.1845,0.1846,0.1915,0.1922,0.1928,0,0,0,0,0,0,0.1932,0.1936,0.1934,0.1937,0.1944,0.1934,0.1938,0.1931,0.1923,0.1918,0.1895,0.189,0.1902,0.1876,0.1872,0.1882,0.1853,0.1853,0.1906,0.1913,0.1919,0.1958,0.1848,0,0,0,0,0,0.1936,0.1943,0.1946,0.1949,0.1956,0.195,0.1951,0.1945,0.1937,0.1933,0.192,0.1904,0.1904,0.1894,0.189,0.1889,0.1904,0.19,0.1905,0.1911,0.1939,0.1975,0.1988,0.185,0.185,0.185,0,0,0.1934,0.1939,0.1941,0.1951,0.1953,0.1965,0.1949,0.1956,0.1967,0.1931,0.194,0.1932,0.1911,0.1919,0.192,0.1897,0.1957,0.1912,0.1917,0.1943,0.1978,0.1992,0.2004,0.1851,0.185,0.185,0,0,0.1936,0.1943,0.1952,0.1962,0.1974,0.1977,0.1984,0.1985,0.199,0.1993,0.1981,0.1994,0.1965,0.1975,0.1969,0.2003,0.1996,0.1985,0.2036,0.207,0.2083,0.2094,0.2135,0.2149,0.1975,0.1975,0.1975,0,0.1934,0.1943,0.1955,0.1969,0.1978,0.1987,0.1999,0.2011,0.201,0.202,0.2001,0.2009,0.2001,0.203,0.2047,0.2022,0.2035,0.2014,0.2081,0.2093,0.2103,0.2142,0.2157,0.1979,0.1978,0.1978,0.1977,0,0.1945,0.1953,0.1962,0.1984,0.1999,0.2012,0.2035,0.2053,0.2056,0.2061,0.2094,0.2092,0.2093,0.2095,0.2083,0.2149,0.2134,0.2097,0.2072,0.2122,0.2159,0.2173,0.1984,0.1983,0.1981,0.1981,0,0,0.1922,0.1962,0.1959,0.1971,0.2007,0.2015,0.2056,0.2089,0.211,0.2126,0.2154,0.2185,0.2189,0.2187,0.2182,0.2222,0.2316,0.2195,0.2195,0.2252,0.24,0.2351,0.2361,0.2284,0.2287,0.2289,0.2399,0,0.1922,0.1945,0.1967,0.1988,0.2004,0.2037,0.2069,0.2102,0.2128,0.2161,0.2194,0.2216,0.2219,0.2223,0.2272,0.2299,0.2356,0.2291,0.233,0.2333,0.2295,0.2377,0.2257,0.2341,0.2413,0.2415,0.2417,0,0.1909,0.1933,0.1954,0.1991,0.2,0.2018,0.207,0.2101,0.2165,0.2181,0.2229,0.2249,0.2329,0.231,0.2421,0.2373,0.2412,0.2437,0.244,0.2385,0.231,0.2299,0.2364,0.2299,0.2439,0.2437,0.2435,0,0.1876,0.191,0.1926,0.1939,0.1993,0.2011,0.2043,0.2104,0.2129,0.2204,0.2222,0.2306,0.2337,0.2413,0.2476,0.2451,0.2589,0.2544,0.2549,0.2545,0.2449,0.2432,0.2471,0.2649,0.2649,0.2649,0.2648,0,0.186,0.1869,0.1909,0.1922,0.1937,0.1986,0.2016,0.2058,0.212,0.2152,0.223,0.2268,0.2366,0.2444,0.2504,0.2576,0.2609,0.26,0.2583,0.2469,0.2453,0.2394,0.2367,0.2653,0.2652,0.2651,0.265,0,0.1827,0.1849,0.1868,0.1916,0.1921,0.1935,0.1982,0.2015,0.2074,0.2123,0.2148,0.2252,0.2352,0.245,0.2569,0.2594,0.2601,0.2689,0.2557,0.2523,0.2444,0.2425,0.2399,0.2328,0.272,0.2719,0.2719,0,0.1829,0.1831,0.185,0.1851,0.1873,0.1897,0.1919,0.1978,0.2011,0.2107,0.2128,0.2243,0.2306,0.2465,0.2543,0.265,0.2584,0.2596,0.2536,0.2461,0.2428,0.2341,0.2276,0.2443,0.2441,0.2438,0.2437,0,0.1841,0.183,0.1845,0.1836,0.1846,0.1845,0.1879,0.1885,0.1964,0.2005,0.2067,0.2127,0.2281,0.2335,0.2473,0.2518,0.2452,0.2555,0.251,0.2262,0.2139,0.2052,0.2358,0.2418,0.242,0.2421,0.2422,0.2423,0.1849,0.1842,0.1841,0.1813,0.1816,0.179,0.1766,0.1807,0.1823,0.1861,0.1972,0.2029,0.2151,0.2319,0.2352,0.2332,0.2342,0.2275,0.2278,0.2212,0.2082,0.2359,0.2368,0.2369,0.237,0.2372,0.2373,0,0.1848,0.183,0.1824,0.1776,0.1739,0.175,0.1734,0.1697,0.168,0.1765,0.181,0.1922,0.1981,0.2077,0.2145,0.2084,0.1984,0.2016,0.1867,0.1832,0.211,0.2034,0.1929,0.1929,0.1929,0.1929,0.1929,0.193,0.1857,0.1822,0.1789,0.1699,0.1663,0.1587,0.155,0.1507,0.153,0.1551,0.1608,0.1712,0.1877,0.1979,0.195,0.1893,0.1749,0.1649,0.1672,0.1866,0.189,0.1912,0.1834,0.169,0.169,0.1288,0.1285,0.1283]},{"header":{"parameterUnit":"m.s-1","parameterCategory":2,"la1":30.2991,"la2":30.254,"lo1":-89.0895,"lo2":-89.0444,"dx":0.0017,"dy":0.0017,"nx":28,"ny":28,"refTime":"2023-01-27T15:00:00:Z","depth":"0","parameterNumber":3,"parameterNumberName":"V-component_of_CURRENTS"},"data":[0,0,0,0,0,0,0,0,0,0,0,0,0,0,0,0,0,0,0,0,0,0,0,0,0,0,0,0,0,0,0,0,0,0,0,0,0,0,0,0,0,0,0,0,0,0,0,0,0,0,0,0,0,0,0,0,0,0,-0.0246,-0.0247,0,-0.0355,-0.0356,-0.0358,-0.0442,-0.0443,-0.0444,-0.0444,-0.0541,-0.0542,-0.0544,0,0,0,0,0,0,0,0,0,0,0,0,0,-0.0141,-0.0143,-0.0246,-0.0247,-0.0248,-0.0355,-0.0356,-0.0358,-0.0442,-0.0443,-0.0444,-0.0445,-0.054,-0.0542,-0.0545,0,0,0,0,0,0,0,0,0,0,0,0,0,-0.0213,-0.0143,-0.0245,-0.0302,-0.0308,-0.0355,-0.0357,-0.0358,-0.0442,-0.0443,-0.0444,-0.0445,-0.0539,-0.0542,-0.0545,-0.0541,0,0,-0.0554,-0.0555,0,0,0,0,0,0,0,0,-0.0209,-0.0217,-0.0293,-0.0298,-0.0305,-0.0385,-0.0355,-0.0419,-0.0442,-0.0392,-0.0444,-0.0445,-0.0486,-0.0493,-0.0513,-0.0546,-0.055,-0.0554,-0.0556,-0.0557,-0.0558,0,0,0,0,0,0,0,-0.0204,-0.0213,-0.029,-0.0294,-0.0302,-0.0333,-0.0344,-0.0368,-0.0432,-0.0397,-0.0403,-0.0413,-0.049,-0.051,-0.0516,-0.0551,-0.0554,-0.0556,-0.0558,-0.0559,-0.0571,-0.057,0,0,0,0,0,0,-0.0186,-0.0208,-0.0286,-0.0293,-0.0258,-0.0334,-0.0347,-0.0359,-0.0433,-0.0445,-0.0412,-0.0416,-0.0505,-0.0512,-0.052,-0.0488,-0.0557,-0.0559,-0.0561,-0.0573,-0.0571,-0.057,0,0,0,0,0,0,-0.0183,-0.0192,-0.0282,-0.0252,-0.0266,-0.0334,-0.0348,-0.0361,-0.0378,-0.0444,-0.0456,-0.0416,-0.0506,-0.0516,-0.0536,-0.0493,-0.0561,-0.0563,-0.0574,-0.0572,-0.057,-0.0444,0,0,0,0,0,0,-0.0179,-0.019,-0.0182,-0.0251,-0.0267,-0.0288,-0.0347,-0.0362,-0.0383,-0.039,-0.0451,-0.0462,-0.0507,-0.0531,-0.0539,-0.0498,-0.0566,-0.0576,-0.0573,-0.0571,-0.045,-0.0438,-0.0428,0,0,0,0,0,-0.0175,-0.0154,-0.0181,-0.019,-0.0258,-0.0287,-0.0297,-0.0351,-0.0382,-0.0374,-0.0425,-0.046,-0.052,-0.0533,-0.0542,-0.0501,-0.0577,-0.0574,-0.0571,-0.0455,-0.044,-0.0428,0,0,0,0,0,0,-0.0093,-0.0163,-0.0194,-0.0192,-0.0229,-0.03,-0.0295,-0.0338,-0.0374,-0.0379,-0.0449,-0.0462,-0.0462,-0.05,-0.0513,-0.0498,-0.0551,-0.0549,-0.0459,-0.0446,-0.0435,-0.0403,-0.0568,0,0,0,0,0,-0.0074,-0.0084,-0.0148,-0.0144,-0.0158,-0.0225,-0.0241,-0.0278,-0.0325,-0.0342,-0.0391,-0.0433,-0.0456,-0.0467,-0.0497,-0.0489,-0.0501,-0.0467,-0.0456,-0.0446,-0.0426,-0.0414,-0.0399,-0.0559,-0.0559,-0.0559,0,0,-0.0043,-0.0078,-0.0085,-0.0128,-0.0162,-0.0169,-0.0237,-0.0249,-0.0252,-0.0344,-0.0354,-0.0396,-0.0447,-0.0441,-0.0443,-0.0467,-0.0404,-0.0442,-0.0433,-0.0419,-0.0409,-0.0394,-0.038,-0.0557,-0.0558,-0.0558,0,0,0.0015,-0.0013,-0.0007,-0.0031,-0.0072,-0.011,-0.0108,-0.0171,-0.0192,-0.021,-0.0271,-0.0284,-0.0335,-0.0352,-0.037,-0.0312,-0.0348,-0.0323,-0.0236,-0.0224,-0.021,-0.0199,-0.0177,-0.0164,-0.0314,-0.0314,-0.0314,0,0.0057,0.0047,-0.0003,-0.0001,-0.0011,-0.0077,-0.0065,-0.0089,-0.0151,-0.0151,-0.0194,-0.0241,-0.0286,-0.0263,-0.025,-0.0282,-0.0284,-0.0282,-0.0207,-0.0196,-0.0186,-0.0167,-0.0155,-0.0307,-0.0308,-0.0309,-0.0309,0,0.0105,0.0103,0.0114,0.0086,0.0079,0.0083,0.004,0.0036,-0.0001,-0.0033,-0.0026,-0.0087,-0.0111,-0.0123,-0.0174,-0.0119,-0.0145,-0.0195,-0.0235,-0.0161,-0.0147,-0.0136,-0.0298,-0.03,-0.0302,-0.0304,0,0,0.0176,0.0149,0.0152,0.0155,0.0123,0.0124,0.0141,0.0137,0.0159,0.0114,0.0144,0.0103,0.0072,0.0051,-0.0001,0.0006,0.0071,-0.0057,-0.006,-0.0024,0.011,0.0058,0.0064,0.0031,0.0033,0.0035,0.0098,0,0.0224,0.0248,0.0221,0.0257,0.0266,0.023,0.0255,0.0251,0.0234,0.0252,0.0217,0.0219,0.0139,0.0137,0.0137,0.0078,0.0102,0.0059,0.0023,0.0023,-0.0024,0.0076,0.0027,0.0076,0.0108,0.011,0.0111,0,0.0269,0.0281,0.0321,0.0337,0.0341,0.0361,0.0396,0.0407,0.0421,0.0412,0.0417,0.0376,0.0387,0.0302,0.0282,0.0256,0.0207,0.0161,0.0162,0.0078,-0.0009,0.0002,0.0093,-0.0023,0.0127,0.0125,0.0124,0,0.0333,0.035,0.0388,0.039,0.0403,0.0432,0.0444,0.0463,0.0493,0.0522,0.0551,0.0538,0.0541,0.0486,0.0378,0.034,0.035,0.0282,0.0202,0.0198,0.0133,0.0119,0.0116,0.0296,0.0296,0.0296,0.0296,0,0.0386,0.042,0.0424,0.0447,0.051,0.0502,0.0578,0.0582,0.0625,0.0683,0.0643,0.0686,0.0584,0.0558,0.0454,0.037,0.0415,0.0253,0.0222,0.0175,0.0164,0.0036,-0.0034,0.0298,0.0297,0.0297,0.0297,0,0.0453,0.0447,0.0496,0.0526,0.0538,0.0589,0.0645,0.0706,0.073,0.0809,0.0827,0.0818,0.0783,0.0675,0.0589,0.0472,0.0311,0.0344,0.03,0.0262,0.0059,-0.0002,-0.0035,-0.0099,0.0287,0.0286,0.0285,0,0.0495,0.0524,0.0559,0.0592,0.0609,0.0675,0.0727,0.0756,0.0814,0.0886,0.0933,0.0931,0.0923,0.0786,0.0588,0.0436,0.0309,0.0284,0.0198,0.0077,-0.0014,-0.0062,-0.0117,0.0173,0.0171,0.017,0.0169,0,0.0581,0.0586,0.062,0.0676,0.0729,0.0793,0.0859,0.0914,0.0964,0.1024,0.1086,0.109,0.0958,0.0777,0.0557,0.0425,0.0176,0.0253,0.0144,-0.0074,-0.014,-0.0228,0.0107,0.0158,0.0159,0.016,0.0161,0.0161,0.0648,0.0678,0.0705,0.0756,0.0817,0.0885,0.0934,0.1008,0.1088,0.1153,0.117,0.117,0.0925,0.0613,0.044,0.0076,0.0099,-0.005,-0.01,-0.0125,-0.023,0.0087,0.0078,0.0078,0.0079,0.0079,0.008,0,0.0705,0.0721,0.0782,0.0826,0.0884,0.0907,0.1001,0.104,0.1114,0.119,0.1219,0.1077,0.0768,0.0463,-0.0,-0.0235,-0.0329,-0.036,-0.0438,-0.0468,-0.0168,-0.022,-0.0315,-0.0315,-0.0314,-0.0314,-0.0314,-0.0314,0.0734,0.0766,0.0776,0.0853,0.0896,0.0955,0.0996,0.1056,0.1107,0.1147,0.1131,0.1124,0.0887,0.0119,-0.0427,-0.0555,-0.0702,-0.0741,-0.0792,-0.0604,-0.0579,-0.0555,-0.062,-0.0796,-0.0797,-0.1092,-0.1095,-0.1097]}],[{"header":{"parameterUnit":"m.s-1","parameterCategory":2,"la1":30.2991,"la2":30.254,"lo1":-89.0895,"lo2":-89.0444,"dx":0.0017,"dy":0.0017,"nx":28,"ny":28,"refTime":"2023-01-27T15:00:00:Z","depth":"2","parameterNumber":2,"parameterNumberName":"U-component_of_CURRENTS"},"data":[0,0,0,0,0,0,0,0,0,0,0,0,0,0,0,0,0,0,0,0,0,0,0,0,0,0,0,0,0,0,0,0,0,0,0,0,0,0,0,0,0,0,0,0,0,0,0,0,0,0,0,0,0,0,0,0,0,0,0.1962,0.1963,0,0.2015,0.2015,0.2016,0.2061,0.2061,0.2062,0.2062,0.203,0.2028,0.2027,0,0,0,0,0,0,0,0,0,0,0,0,0,0.1865,0.1867,0.1962,0.1963,0.1964,0.2015,0.2015,0.2016,0.206,0.2061,0.2062,0.2063,0.203,0.2028,0.2027,0,0,0,0,0,0,0,0,0,0,0,0,0,0.191,0.1867,0.1962,0.1993,0.1997,0.2014,0.2015,0.2016,0.206,0.2061,0.2062,0.2063,0.2031,0.2029,0.2026,0.1994,0,0,0.202,0.2019,0,0,0,0,0,0,0,0,0.1907,0.1913,0.1988,0.1991,0.1995,0.2033,0.1969,0.2005,0.206,0.2035,0.2062,0.2064,0.2023,0.2022,0.2029,0.1992,0.1991,0.202,0.2018,0.2017,0.2017,0,0,0,0,0,0,0,0.1904,0.1911,0.1982,0.1989,0.1993,0.1992,0.2,0.1976,0.202,0.2037,0.2041,0.2048,0.2024,0.2031,0.2028,0.1991,0.202,0.2018,0.2016,0.2015,0.1984,0.1984,0,0,0,0,0,0,0.1902,0.1909,0.198,0.1983,0.1954,0.1994,0.2002,0.2019,0.2023,0.2025,0.2048,0.205,0.2034,0.203,0.2027,0.2049,0.2017,0.2015,0.2014,0.1983,0.1984,0.1984,0,0,0,0,0,0,0.19,0.1908,0.1978,0.1947,0.1957,0.1995,0.2013,0.202,0.2028,0.2032,0.2033,0.205,0.2035,0.203,0.2024,0.2046,0.2014,0.2012,0.1983,0.1983,0.1984,0.2054,0,0,0,0,0,0,0.1897,0.1907,0.1914,0.1948,0.1958,0.1984,0.2012,0.202,0.2032,0.2036,0.2033,0.2032,0.2035,0.2027,0.2022,0.2042,0.2011,0.1982,0.1983,0.1984,0.2051,0.2057,0.2062,0,0,0,0,0,0.1893,0.1892,0.1914,0.1923,0.1969,0.1984,0.1988,0.2017,0.2031,0.2029,0.2044,0.2032,0.2029,0.2026,0.2019,0.204,0.1982,0.1983,0.1984,0.2049,0.2056,0.2062,0,0,0,0,0,0,0.1843,0.1898,0.1923,0.1937,0.196,0.1992,0.1994,0.2011,0.2021,0.2031,0.2031,0.203,0.2045,0.2018,0.2014,0.2032,0.2005,0.2005,0.2057,0.2063,0.2069,0.2109,0.2009,0,0,0,0,0,0.1838,0.1865,0.1903,0.1917,0.1927,0.1959,0.1968,0.1993,0.2009,0.2016,0.203,0.2035,0.2041,0.2033,0.2039,0.2026,0.2032,0.2036,0.2041,0.2046,0.2074,0.21,0.2112,0.1988,0.1988,0.1988,0,0,0.1828,0.1859,0.1876,0.191,0.1933,0.1958,0.1967,0.1985,0.2023,0.2006,0.2057,0.2058,0.2045,0.2064,0.2065,0.2042,0.2081,0.2048,0.2052,0.2078,0.2103,0.2115,0.2126,0.1989,0.1988,0.1988,0,0,0.1818,0.1843,0.1864,0.1885,0.1922,0.1947,0.195,0.1994,0.2027,0.2057,0.2076,0.2099,0.2086,0.2113,0.2111,0.2139,0.2121,0.212,0.2168,0.2193,0.2204,0.2214,0.223,0.2241,0.2109,0.2109,0.2109,0,0.1808,0.1837,0.1866,0.1889,0.1912,0.1944,0.1967,0.2004,0.205,0.2075,0.208,0.2123,0.2124,0.2154,0.2186,0.2158,0.2157,0.2146,0.2203,0.2213,0.2222,0.2236,0.2247,0.2113,0.2112,0.2112,0.2112,0,0.1817,0.1841,0.1848,0.1906,0.1931,0.1948,0.2008,0.2049,0.2088,0.2123,0.2174,0.2195,0.2218,0.2221,0.2218,0.2275,0.2249,0.222,0.2193,0.224,0.225,0.2261,0.2118,0.2116,0.2115,0.2115,0,0,0.1788,0.1848,0.1848,0.1882,0.194,0.1963,0.2032,0.2089,0.2134,0.2188,0.2238,0.229,0.2304,0.2307,0.2306,0.2339,0.2414,0.2312,0.2311,0.2341,0.2461,0.2341,0.234,0.2386,0.2388,0.239,0.244,0,0.1787,0.1827,0.1862,0.1912,0.194,0.1999,0.2063,0.2127,0.2174,0.2233,0.2273,0.2314,0.233,0.2343,0.2388,0.2412,0.2446,0.2404,0.2401,0.2402,0.23,0.235,0.2179,0.2199,0.245,0.2451,0.2453,0,0.1781,0.1812,0.1854,0.1934,0.1952,0.1994,0.2089,0.2152,0.2236,0.2272,0.2321,0.2342,0.2423,0.2414,0.2507,0.2473,0.2489,0.2502,0.2502,0.238,0.2301,0.2193,0.2208,0.247,0.2468,0.2467,0.2466,0,0.1748,0.1805,0.184,0.1865,0.1961,0.2004,0.2064,0.2157,0.2209,0.2292,0.2314,0.2398,0.2441,0.2492,0.255,0.2525,0.2632,0.2585,0.2493,0.2483,0.2335,0.2308,0.2651,0.2651,0.2651,0.2651,0.2651,0,0.1732,0.1762,0.1828,0.185,0.1906,0.199,0.2057,0.213,0.2215,0.2261,0.233,0.2365,0.2466,0.2527,0.2566,0.2573,0.2646,0.2527,0.2496,0.2349,0.2324,0.2554,0.2542,0.2653,0.2652,0.2652,0.2652,0,0.1706,0.1742,0.1788,0.187,0.1893,0.1943,0.2039,0.2094,0.2176,0.2235,0.226,0.2362,0.2433,0.2513,0.26,0.2575,0.26,0.258,0.24,0.2346,0.2427,0.2418,0.2467,0.2463,0.246,0.2457,0.2455,0,0.1704,0.173,0.1783,0.1814,0.1851,0.192,0.1975,0.2066,0.2116,0.2219,0.2244,0.2325,0.2347,0.2428,0.2431,0.2454,0.254,0.2286,0.2204,0.2448,0.2413,0.2409,0.2404,0.2041,0.2035,0.2031,0.2027,0,0.1721,0.1734,0.176,0.1807,0.1853,0.1893,0.1968,0.1979,0.2088,0.2115,0.2158,0.2171,0.2226,0.2158,0.2187,0.218,0.2264,0.2189,0.2517,0.2095,0.2044,0.201,0.2021,0.1988,0.1992,0.1995,0.1997,0.1999,0.1738,0.1733,0.1765,0.1798,0.1857,0.1873,0.1851,0.191,0.1929,0.1927,0.2004,0.1951,0.1971,0.1887,0.1863,0.1864,0.1994,0.1922,0.1937,0.1956,0.188,0.1823,0.1713,0.1715,0.1717,0.1718,0.172,0,0.1739,0.173,0.1771,0.1786,0.1803,0.1847,0.1858,0.1801,0.1753,0.1774,0.1747,0.1574,0.151,0.1567,0.1491,0.1478,0.149,0.1437,0.1448,0.1487,0.1523,0.1425,0.1137,0.1135,0.1134,0.1132,0,0,0.1752,0.1734,0.1716,0.1713,0.1734,0.1701,0.1659,0.1577,0.1559,0.1448,0.139,0.1415,0.1492,0.1274,0.126,0.1194,0.1337,0.1155,0.1625,0.1677,0.171,0.1803,0.1697,0,0,0,0,0]},{"header":{"parameterUnit":"m.s-1","parameterCategory":2,"la1":30.2991,"la2":30.254,"lo1":-89.0895,"lo2":-89.0444,"dx":0.0017,"dy":0.0017,"nx":28,"ny":28,"refTime":"2023-01-27T15:00:00:Z","depth":"2","parameterNumber":3,"parameterNumberName":"V-component_of_CURRENTS"},"data":[0,0,0,0,0,0,0,0,0,0,0,0,0,0,0,0,0,0,0,0,0,0,0,0,0,0,0,0,0,0,0,0,0,0,0,0,0,0,0,0,0,0,0,0,0,0,0,0,0,0,0,0,0,0,0,0,0,0,-0.0074,-0.0075,0,-0.0193,-0.0195,-0.0196,-0.035,-0.0352,-0.0354,-0.0356,-0.0524,-0.0526,-0.0529,0,0,0,0,0,0,0,0,0,0,0,0,0,0.001,0.0009,-0.0074,-0.0075,-0.0076,-0.0193,-0.0195,-0.0197,-0.0349,-0.0352,-0.0354,-0.0357,-0.0523,-0.0526,-0.0529,0,0,0,0,0,0,0,0,0,0,0,0,0,-0.0064,0.0009,-0.0074,-0.0163,-0.0172,-0.0192,-0.0195,-0.0197,-0.0349,-0.0352,-0.0355,-0.0358,-0.0522,-0.0526,-0.0529,-0.0492,0,0,-0.0541,-0.0543,0,0,0,0,0,0,0,0,-0.0059,-0.0068,-0.0149,-0.0157,-0.0167,-0.0255,-0.0226,-0.0297,-0.0348,-0.0287,-0.0356,-0.0359,-0.0433,-0.0444,-0.0466,-0.05,-0.0507,-0.0541,-0.0544,-0.0545,-0.0547,0,0,0,0,0,0,0,-0.0054,-0.0063,-0.0126,-0.0149,-0.016,-0.02,-0.0214,-0.0241,-0.0346,-0.0292,-0.0303,-0.0307,-0.0439,-0.0462,-0.0471,-0.0509,-0.0541,-0.0545,-0.0547,-0.0549,-0.0589,-0.0588,0,0,0,0,0,0,-0.0026,-0.0058,-0.0123,-0.0129,-0.0114,-0.0198,-0.0215,-0.0228,-0.0345,-0.0364,-0.0304,-0.0313,-0.0454,-0.0467,-0.0478,-0.0486,-0.0545,-0.0549,-0.0551,-0.059,-0.0589,-0.0588,0,0,0,0,0,0,-0.0023,-0.003,-0.0118,-0.0092,-0.0106,-0.0196,-0.021,-0.0228,-0.0265,-0.0352,-0.0374,-0.0322,-0.0457,-0.0472,-0.053,-0.0492,-0.0551,-0.0554,-0.0592,-0.059,-0.0588,-0.0472,0,0,0,0,0,0,-0.0021,-0.0029,-0.0032,-0.009,-0.0106,-0.0135,-0.0207,-0.0228,-0.0259,-0.0273,-0.0374,-0.0393,-0.046,-0.0524,-0.0534,-0.0498,-0.0557,-0.0593,-0.0591,-0.0589,-0.0478,-0.0467,-0.0458,0,0,0,0,0,-0.0017,-0.0018,-0.0031,-0.0039,-0.0106,-0.0133,-0.0146,-0.0223,-0.0257,-0.0268,-0.0349,-0.039,-0.0515,-0.0526,-0.0538,-0.0503,-0.0595,-0.0592,-0.0589,-0.0482,-0.0469,-0.0458,0,0,0,0,0,0,0.0008,-0.0034,-0.0051,-0.0066,-0.0092,-0.0158,-0.0174,-0.0208,-0.0277,-0.0299,-0.0385,-0.0408,-0.0442,-0.0485,-0.0494,-0.0507,-0.0556,-0.0555,-0.047,-0.0458,-0.0448,-0.0421,-0.056,0,0,0,0,0,0.0024,0.0012,-0.0025,-0.0035,-0.0043,-0.0098,-0.0118,-0.0163,-0.0225,-0.0259,-0.0329,-0.0393,-0.0431,-0.0459,-0.0509,-0.0513,-0.0547,-0.0494,-0.0484,-0.0475,-0.0461,-0.048,-0.047,-0.0579,-0.0579,-0.0579,0,0,0.0032,0.0009,0.0001,-0.0029,-0.0058,-0.0072,-0.0121,-0.0147,-0.0163,-0.0261,-0.0315,-0.0363,-0.0426,-0.0449,-0.0463,-0.0485,-0.0464,-0.0472,-0.0464,-0.0454,-0.0476,-0.0465,-0.0456,-0.0577,-0.0577,-0.0577,0,0,0.0046,0.0027,0.0024,0.0007,-0.0022,-0.0051,-0.0049,-0.0106,-0.0138,-0.0174,-0.0246,-0.0273,-0.0345,-0.0378,-0.0401,-0.0355,-0.0412,-0.0364,-0.0288,-0.0306,-0.0297,-0.0289,-0.0323,-0.032,-0.0355,-0.0355,-0.0355,0,0.006,0.0047,0.0021,0.0015,0.0006,-0.0034,-0.0035,-0.0062,-0.0134,-0.014,-0.0184,-0.0253,-0.0305,-0.0307,-0.0296,-0.0328,-0.036,-0.0329,-0.0291,-0.0285,-0.0279,-0.0316,-0.0313,-0.0349,-0.035,-0.0351,-0.0351,0,0.0069,0.0061,0.0061,0.0041,0.0031,0.0024,-0.0003,-0.0014,-0.0043,-0.0072,-0.0083,-0.0148,-0.0182,-0.019,-0.0232,-0.0201,-0.0244,-0.0278,-0.0319,-0.0261,-0.0304,-0.0303,-0.0341,-0.0343,-0.0345,-0.0346,0,0,0.0101,0.0073,0.0075,0.0075,0.0045,0.0042,0.0042,0.004,0.0055,0.0005,0.0021,-0.0019,-0.0036,-0.0061,-0.01,-0.0109,-0.0093,-0.0164,-0.0168,-0.0191,-0.0146,-0.0196,-0.0202,-0.0123,-0.0122,-0.0122,-0.0193,0,0.012,0.012,0.0101,0.0108,0.0109,0.009,0.0105,0.0099,0.0084,0.0087,0.0063,0.0053,0.0009,0.001,-0.0001,-0.0073,-0.0085,-0.0071,-0.0204,-0.0208,-0.0254,-0.02,-0.0146,-0.0207,-0.0193,-0.0193,-0.0193,0,0.014,0.0139,0.015,0.0158,0.0162,0.0168,0.02,0.0207,0.0214,0.021,0.0207,0.0165,0.0163,0.0112,0.004,0.0049,-0.0028,-0.0089,-0.0095,-0.0179,-0.0257,-0.0263,-0.0208,-0.0193,-0.0193,-0.0193,-0.0193,0,0.018,0.0178,0.0193,0.0189,0.0193,0.0218,0.0235,0.0251,0.028,0.0293,0.0306,0.0277,0.0275,0.0186,0.0068,0.0054,-0.0032,-0.0075,-0.0196,-0.0202,-0.02,-0.0207,-0.0124,-0.0124,-0.0123,-0.0123,-0.0123,0,0.0205,0.0219,0.0219,0.0227,0.0273,0.0273,0.0334,0.0348,0.0388,0.0431,0.0383,0.0393,0.0296,0.0223,0.0101,-0.0039,-0.0008,-0.0168,-0.0213,-0.016,-0.0163,-0.0189,-0.0196,-0.0126,-0.0125,-0.0125,-0.0124,0,0.0234,0.0231,0.0252,0.0274,0.0288,0.0329,0.0391,0.044,0.0473,0.0528,0.0538,0.0496,0.0401,0.027,0.0125,0.0011,-0.0131,-0.0196,-0.0135,-0.0171,-0.0301,-0.0301,-0.0331,-0.0333,-0.0335,-0.0336,-0.0337,0,0.0237,0.0255,0.0284,0.0313,0.0324,0.0385,0.0435,0.0482,0.0538,0.0577,0.0608,0.0539,0.0468,0.0234,0.0058,-0.0153,-0.0179,-0.0255,-0.0268,-0.0276,-0.0317,-0.0314,-0.0312,-0.0224,-0.0224,-0.0224,-0.0224,0,0.0251,0.027,0.0288,0.0344,0.0393,0.0457,0.0534,0.058,0.065,0.0681,0.0693,0.0629,0.0437,0.0246,-0.0018,-0.0154,-0.0215,-0.027,-0.0273,-0.0186,-0.0183,-0.0221,-0.022,-0.0226,-0.0226,-0.0226,-0.0226,-0.0226,0.0258,0.028,0.0312,0.0362,0.0439,0.0521,0.0557,0.0638,0.0704,0.0741,0.0718,0.064,0.0466,0.0117,-0.0079,-0.0251,-0.0268,-0.0335,-0.0331,-0.0327,-0.0308,-0.0308,-0.0373,-0.0373,-0.0374,-0.0374,-0.0375,0,0.0241,0.0272,0.0329,0.0385,0.046,0.0514,0.0615,0.0646,0.0698,0.0741,0.0727,0.055,0.0343,0.0149,-0.0105,-0.0298,-0.0275,-0.0351,-0.0268,-0.0266,-0.0264,-0.0239,-0.0287,-0.0287,-0.0287,-0.0288,0,0,0.0235,0.0263,0.029,0.0377,0.0443,0.0537,0.0588,0.0626,0.0678,0.0678,0.0664,0.0602,0.0389,0.0216,-0.0005,-0.014,-0.0165,-0.0167,-0.0217,-0.0091,-0.0087,-0.0234,-0.0191,0,0,0,0,0]}],[{"header":{"parameterUnit":"m.s-1","parameterCategory":2,"la1":30.2991,"la2":30.254,"lo1":-89.0895,"lo2":-89.0444,"dx":0.0017,"dy":0.0017,"nx":28,"ny":28,"refTime":"2023-01-27T15:00:00:Z","depth":"4","parameterNumber":2,"parameterNumberName":"U-component_of_CURRENTS"},"data":[0,0,0,0,0,0,0,0,0,0,0,0,0,0,0,0,0,0,0,0,0,0,0,0,0,0,0,0,0,0,0,0,0,0,0,0,0,0,0,0,0,0,0,0,0,0,0,0,0,0,0,0,0,0,0,0,0,0,0.086,0.086,0,0.089,0.089,0.089,0.0918,0.0919,0.0919,0.092,0.0876,0.0875,0.0873,0,0,0,0,0,0,0,0,0,0,0,0,0,0.0828,0.0828,0.086,0.086,0.0861,0.089,0.089,0.089,0.0918,0.0919,0.0919,0.092,0.0877,0.0875,0.0873,0,0,0,0,0,0,0,0,0,0,0,0,0,0.0847,0.0828,0.086,0.0879,0.0881,0.089,0.089,0.089,0.0918,0.0919,0.092,0.092,0.0878,0.0875,0.0873,0.0844,0,0,0.0866,0.0865,0,0,0,0,0,0,0,0,0.0846,0.0848,0.0876,0.0878,0.088,0.0902,0.0863,0.0872,0.0918,0.0903,0.092,0.0921,0.0879,0.0876,0.0879,0.0842,0.084,0.0865,0.0864,0.0863,0.0862,0,0,0,0,0,0,0,0.0844,0.0847,0.087,0.0876,0.0879,0.0887,0.089,0.0865,0.0884,0.0904,0.0907,0.0912,0.0879,0.0882,0.0878,0.0839,0.0865,0.0863,0.0862,0.0861,0.0919,0.0921,0,0,0,0,0,0,0.0843,0.0845,0.0869,0.0871,0.0866,0.0887,0.0891,0.0893,0.0886,0.0887,0.0911,0.0913,0.0885,0.0881,0.0877,0.0917,0.0863,0.0861,0.0859,0.0916,0.0919,0.0922,0,0,0,0,0,0,0.0842,0.0844,0.0868,0.086,0.0864,0.0887,0.089,0.0894,0.0922,0.0892,0.0891,0.0938,0.0886,0.088,0.0886,0.0912,0.086,0.0857,0.0912,0.0917,0.0921,0.0948,0,0,0,0,0,0,0.084,0.0844,0.0854,0.086,0.0865,0.0886,0.0889,0.0894,0.0923,0.0926,0.0914,0.091,0.0886,0.089,0.0884,0.0908,0.0856,0.0908,0.0914,0.0919,0.0944,0.0953,0.0961,0,0,0,0,0,0.0839,0.0847,0.0854,0.0857,0.0874,0.0887,0.089,0.0908,0.0924,0.0936,0.094,0.0912,0.0923,0.089,0.0882,0.0906,0.0906,0.0913,0.0919,0.094,0.0951,0.0961,0,0,0,0,0,0,0.0838,0.0851,0.0858,0.0871,0.0885,0.0893,0.091,0.0923,0.0937,0.0947,0.0924,0.092,0.0945,0.0931,0.0895,0.095,0.0919,0.0925,0.0938,0.0949,0.0957,0.0975,0.0854,0,0,0,0,0,0.0842,0.0854,0.0865,0.0878,0.0888,0.0905,0.0917,0.093,0.0939,0.0949,0.0946,0.0955,0.0963,0.0959,0.0963,0.0968,0.0961,0.0993,0.1002,0.1009,0.1026,0.1044,0.1054,0.0944,0.0944,0.0944,0,0,0.0845,0.0855,0.0862,0.0879,0.0894,0.0908,0.0915,0.0941,0.096,0.0938,0.0971,0.098,0.0976,0.0997,0.1008,0.0985,0.1036,0.1018,0.1023,0.1036,0.1051,0.1061,0.107,0.0949,0.0948,0.0947,0,0,0.0855,0.0869,0.0883,0.0896,0.0923,0.0928,0.0942,0.0967,0.099,0.1014,0.102,0.1049,0.1051,0.1059,0.1059,0.1122,0.1088,0.1136,0.1176,0.1193,0.1201,0.1208,0.1195,0.12,0.1132,0.1132,0.1132,0,0.0863,0.0877,0.089,0.0908,0.0922,0.094,0.0959,0.0978,0.1005,0.103,0.1035,0.1091,0.1082,0.1112,0.1147,0.1136,0.1136,0.1122,0.12,0.1207,0.1213,0.1198,0.1204,0.1135,0.1134,0.1134,0.1134,0,0.0879,0.0896,0.0908,0.0932,0.0948,0.0968,0.099,0.1019,0.1051,0.1077,0.1137,0.1145,0.1182,0.1191,0.1182,0.1239,0.1219,0.1207,0.1159,0.1225,0.1206,0.1211,0.1138,0.1137,0.1136,0.1136,0,0,0.0886,0.0914,0.0922,0.0935,0.0964,0.0977,0.1012,0.1049,0.1089,0.1132,0.1183,0.1226,0.1258,0.1268,0.1271,0.1289,0.1326,0.1278,0.1277,0.124,0.1349,0.1275,0.1273,0.1326,0.1327,0.1329,0.1308,0,0.0899,0.0928,0.0941,0.0969,0.0984,0.1008,0.1038,0.1078,0.1122,0.1175,0.1214,0.1269,0.1277,0.1308,0.1332,0.1334,0.1347,0.1332,0.1314,0.1313,0.1218,0.1279,0.1334,0.1312,0.1313,0.1314,0.1315,0,0.0912,0.093,0.0959,0.099,0.1002,0.1026,0.1083,0.1115,0.1184,0.1223,0.1288,0.1326,0.1379,0.1374,0.141,0.1403,0.1395,0.1385,0.1383,0.1312,0.125,0.1241,0.1324,0.1323,0.1322,0.1322,0.1321,0,0.0905,0.0941,0.0965,0.0976,0.1015,0.1047,0.1078,0.1145,0.1179,0.127,0.1314,0.1377,0.1415,0.1432,0.1443,0.1433,0.146,0.143,0.135,0.1342,0.1396,0.1389,0.1459,0.1459,0.1459,0.1459,0.1459,0,0.0902,0.0922,0.0971,0.0983,0.1022,0.106,0.1116,0.1159,0.1226,0.1269,0.1356,0.1396,0.144,0.1464,0.1457,0.1424,0.1473,0.1373,0.1344,0.1408,0.1403,0.1398,0.1391,0.1458,0.1459,0.1459,0.1459,0,0.0879,0.091,0.094,0.0997,0.1017,0.1053,0.1116,0.1151,0.1236,0.1292,0.1327,0.1412,0.1446,0.1468,0.1476,0.143,0.1408,0.1382,0.1444,0.1417,0.1267,0.1263,0.1278,0.1275,0.1273,0.1271,0.127,0,0.0862,0.0877,0.0943,0.0961,0.0991,0.1044,0.1071,0.1145,0.1172,0.129,0.1302,0.1383,0.1427,0.1375,0.1407,0.1375,0.1362,0.1333,0.1316,0.1284,0.1255,0.1254,0.1252,0.1266,0.1266,0.1265,0.1265,0,0.0825,0.0863,0.0885,0.0924,0.096,0.0988,0.1036,0.1044,0.1127,0.1217,0.1254,0.1285,0.1312,0.1316,0.1308,0.1287,0.1345,0.131,0.1314,0.1297,0.127,0.1243,0.1244,0.1257,0.1258,0.1259,0.1259,0,0.0795,0.0806,0.084,0.0868,0.0907,0.0915,0.095,0.0974,0.1008,0.113,0.1135,0.1227,0.1292,0.127,0.1265,0.1242,0.1214,0.1166,0.1176,0.1185,0.1167,0.112,0.105,0,0,0,0,0,0.0755,0.0755,0.0774,0.0794,0.0832,0.0858,0.0909,0.0944,0.1025,0.1018,0.107,0.1097,0.1118,0.1163,0.1115,0.1212,0.1211,0.1152,0.1158,0.1216,0.1225,0.1215,0,0,0,0,0,0,0.0723,0.0738,0.0746,0.0724,0.0732,0.0758,0.0795,0.0854,0.0847,0.0943,0.0954,0.1036,0.1061,0.1132,0.1099,0.1107,0.1088,0.1201,0.1198,0.1211,0.1219,0.1226,0.1218,0,0,0,0,0]},{"header":{"parameterUnit":"m.s-1","parameterCategory":2,"la1":30.2991,"la2":30.254,"lo1":-89.0895,"lo2":-89.0444,"dx":0.0017,"dy":0.0017,"nx":28,"ny":28,"refTime":"2023-01-27T15:00:00:Z","depth":"4","parameterNumber":3,"parameterNumberName":"V-component_of_CURRENTS"},"data":[0,0,0,0,0,0,0,0,0,0,0,0,0,0,0,0,0,0,0,0,0,0,0,0,0,0,0,0,0,0,0,0,0,0,0,0,0,0,0,0,0,0,0,0,0,0,0,0,0,0,0,0,0,0,0,0,0,0,0.0225,0.0225,0,0.0225,0.0225,0.0225,0.0254,0.0255,0.0256,0.0257,0.0289,0.0289,0.0289,0,0,0,0,0,0,0,0,0,0,0,0,0,0.0206,0.0207,0.0225,0.0225,0.0225,0.0225,0.0225,0.0225,0.0254,0.0255,0.0257,0.0258,0.0289,0.0289,0.0289,0,0,0,0,0,0,0,0,0,0,0,0,0,0.0209,0.0207,0.0225,0.0242,0.0243,0.0225,0.0225,0.0225,0.0254,0.0256,0.0257,0.0258,0.0289,0.0289,0.0289,0.026,0,0,0.0289,0.0289,0,0,0,0,0,0,0,0,0.0209,0.021,0.0239,0.024,0.0242,0.0243,0.023,0.0239,0.0254,0.0248,0.0257,0.0259,0.0277,0.0278,0.0272,0.0262,0.0263,0.0289,0.0289,0.0289,0.0289,0,0,0,0,0,0,0,0.0209,0.021,0.0223,0.0239,0.0241,0.0234,0.0236,0.0231,0.0253,0.0249,0.0251,0.0254,0.0278,0.0272,0.0273,0.0263,0.0289,0.0289,0.0289,0.0289,0.0222,0.022,0,0,0,0,0,0,0.0214,0.021,0.0223,0.0223,0.0231,0.0233,0.0236,0.024,0.0253,0.0257,0.0252,0.0255,0.0271,0.0273,0.0274,0.0246,0.0289,0.0289,0.0289,0.0224,0.0221,0.022,0,0,0,0,0,0,0.0213,0.0215,0.0223,0.0218,0.0219,0.0233,0.0236,0.0239,0.024,0.0256,0.026,0.0252,0.0272,0.0274,0.0271,0.0247,0.0289,0.0289,0.0226,0.0223,0.022,0.0186,0,0,0,0,0,0,0.0213,0.0215,0.0213,0.0218,0.0219,0.0209,0.0235,0.0238,0.024,0.0243,0.0256,0.0261,0.0273,0.0271,0.0271,0.0248,0.0289,0.0228,0.0224,0.0221,0.0189,0.0182,0.0177,0,0,0,0,0,0.0212,0.0203,0.0213,0.0215,0.0219,0.0209,0.0207,0.0221,0.0238,0.0229,0.0242,0.0261,0.025,0.027,0.027,0.0247,0.0229,0.0225,0.0222,0.0192,0.0184,0.0177,0,0,0,0,0,0,0.0191,0.0205,0.0217,0.0213,0.0211,0.0215,0.0208,0.0217,0.0218,0.0227,0.0246,0.025,0.0234,0.024,0.0262,0.0214,0.0239,0.0235,0.0216,0.0208,0.0202,0.0203,0.0289,0,0,0,0,0,0.0187,0.0188,0.0195,0.0192,0.0191,0.0199,0.0197,0.0205,0.021,0.0212,0.022,0.0222,0.0213,0.0214,0.0207,0.0187,0.0175,0.0167,0.016,0.0155,0.0153,0.0102,0.0092,0.0207,0.0207,0.0207,0,0,0.018,0.0186,0.0188,0.0188,0.019,0.0185,0.0201,0.0195,0.0191,0.0214,0.0207,0.0202,0.0202,0.0179,0.0171,0.0186,0.0115,0.015,0.0146,0.0147,0.0097,0.0086,0.0076,0.0204,0.0204,0.0205,0,0,0.0166,0.0171,0.0169,0.0165,0.0168,0.017,0.0169,0.0168,0.0169,0.0157,0.0167,0.0147,0.0143,0.0129,0.0125,0.0075,0.0081,0.0071,0.0045,-0.0004,-0.0014,-0.0022,-0.0053,-0.0063,0.007,0.007,0.007,0,0.0159,0.0162,0.0163,0.0158,0.0159,0.0164,0.0161,0.0152,0.0149,0.0144,0.0153,0.0117,0.0115,0.0082,0.0064,0.0062,0.0044,0.008,-0.0012,-0.002,-0.0028,-0.0057,-0.0069,0.0068,0.0068,0.0069,0.0069,0,0.0147,0.0147,0.0142,0.0146,0.0139,0.0134,0.013,0.0118,0.012,0.0113,0.0079,0.0061,0.0045,0.0027,0.0034,-0.0028,-0.0019,-0.0014,0.0013,-0.0042,-0.0069,-0.008,0.0065,0.0066,0.0066,0.0067,0,0,0.0146,0.0139,0.0139,0.0143,0.0136,0.0132,0.0116,0.0104,0.0098,0.0068,0.005,0.0005,-0.0005,-0.0013,-0.0024,-0.0073,-0.015,-0.0067,-0.0069,-0.0088,-0.0249,-0.0197,-0.0204,-0.0159,-0.0161,-0.0163,-0.0245,0,0.0143,0.0136,0.0132,0.0129,0.0128,0.0123,0.0111,0.0096,0.0081,0.0058,0.0016,-0.0006,-0.0019,-0.0029,-0.0085,-0.0128,-0.0181,-0.0127,-0.0201,-0.0203,-0.0143,-0.0216,-0.017,-0.0253,-0.0256,-0.0258,-0.0259,0,0.0139,0.0138,0.0135,0.0133,0.0133,0.0128,0.0118,0.0107,0.007,0.0058,0.0015,-0.0007,-0.0078,-0.0082,-0.02,-0.0163,-0.0212,-0.0253,-0.0256,-0.0201,-0.0172,-0.0189,-0.0279,-0.0278,-0.0276,-0.0275,-0.0274,0,0.0145,0.0141,0.0143,0.0141,0.0135,0.0133,0.0131,0.0107,0.01,0.0057,0.0049,-0.0034,-0.0067,-0.0157,-0.023,-0.0223,-0.0355,-0.0352,-0.0355,-0.0351,-0.0354,-0.0344,-0.0449,-0.0449,-0.0448,-0.0448,-0.0448,0,0.0144,0.0145,0.0148,0.0148,0.0154,0.0146,0.0145,0.0131,0.0108,0.0101,0.0054,0.0031,-0.0089,-0.0165,-0.0242,-0.0327,-0.0366,-0.0375,-0.0378,-0.0367,-0.0358,-0.0362,-0.0351,-0.0451,-0.0451,-0.045,-0.0449,0,0.014,0.0144,0.0147,0.0151,0.0156,0.0158,0.0162,0.0157,0.0144,0.0132,0.0122,0.0058,-0.0028,-0.0135,-0.0277,-0.0325,-0.0419,-0.0437,-0.0409,-0.0406,-0.0383,-0.0373,-0.0467,-0.0466,-0.0465,-0.0465,-0.0464,0,0.0128,0.0132,0.0151,0.0159,0.0161,0.017,0.0177,0.0172,0.017,0.0157,0.015,0.0079,0.0031,-0.0124,-0.0241,-0.0388,-0.0398,-0.0449,-0.0437,-0.0396,-0.039,-0.0381,-0.0372,-0.0463,-0.0462,-0.0462,-0.0462,0,0.0105,0.012,0.0128,0.0156,0.017,0.0185,0.0196,0.02,0.0202,0.0193,0.0181,0.0115,0.0028,-0.01,-0.0205,-0.0311,-0.0423,-0.0441,-0.0444,-0.0433,-0.0392,-0.0385,-0.0377,-0.0459,-0.046,-0.046,-0.046,0,0.009,0.0096,0.0121,0.0147,0.0169,0.0195,0.0202,0.0213,0.0218,0.0213,0.0207,0.0131,0.0071,-0.0059,-0.0161,-0.0254,-0.028,-0.0314,-0.0324,-0.0328,-0.0255,-0.0181,-0.0202,0,0,0,0,0,0.0077,0.0093,0.0109,0.0144,0.0169,0.019,0.0212,0.022,0.023,0.0232,0.0225,0.0157,0.0036,-0.0025,-0.0109,-0.0164,-0.0313,-0.0267,-0.0361,-0.0444,-0.0447,-0.0379,0,0,0,0,0,0,0.0066,0.0085,0.0105,0.0141,0.0166,0.0198,0.0218,0.0228,0.0229,0.0231,0.0165,0.0144,0.0015,0.0087,-0.0107,-0.0136,-0.0205,-0.0327,-0.0329,-0.0442,-0.0445,-0.0447,-0.0379,0,0,0,0,0]}]]